#timestamp,LO_Frequency,Hit 
1500058815.4,286047278.7,N
1500058835.3,286047278.4,N
1500058855.1,286047279.0,N
1500058875.8,286047279.1,N
1500058895.7,286047276.7,N
1500058915.5,286047279.1,N
1500058935.4,286047279.5,N
1500058955.2,286047277.6,N
1500058975.0,286047277.6,N
1500058975.9,286047277.6,N
1500058995.8,286047277.4,N
1500059015.6,286047275.6,N
1500059035.4,286047279.5,N
1500059055.3,286047277.3,N
1500059075.1,286047277.1,N
1500059095.9,286047278.3,N
1500059115.7,286047278.5,N
1500059135.5,286047281.2,N
1500059155.4,286047281.1,N
1500059175.2,286047278.4,N
1500059195.1,286047278.7,N
1500059196.0,286047278.7,N
1500059215.8,286047278.5,N
1500059235.6,286047278.9,N
1500059255.5,286047278.1,N
1500059275.3,286047281.0,N
1500059295.2,286047278.2,N
1500059315.9,286047278.3,N
1500059335.7,286047279.9,N
1500059355.6,286047282.8,N
1500059375.4,286047282.4,N
1500059395.2,286047278.7,N
1500059415.1,286047278.4,N
1500059416.0,286047278.4,N
1500059435.8,286047277.7,N
1500059455.7,286047276.9,N
1500059475.5,286047276.8,N
1500059495.3,286047279.3,N
1500059515.2,286047279.5,N
1500059535.0,286047279.6,N
1500059535.9,286047279.6,N
1500059555.8,286047277.1,N
1500059575.6,286047280.8,N
1500059595.4,286047280.0,N
1500059615.3,286047280.5,N
1500059635.1,286047282.8,N
1500059655.8,286047279.8,N
1500059675.7,286047282.6,N
1500059695.5,286047282.4,N
1500059715.4,286047280.4,N
1500059735.2,286047280.1,N
1500059755.0,286047282.2,N
1500059755.9,286047282.2,N
1500059775.8,286047279.8,N
1500059795.6,286047279.7,N
1500059815.4,286047278.2,N
1500059835.3,286047281.2,N
1500059855.1,286047281.2,N
1500059875.9,286047281.1,N
1500059895.7,286047280.9,N
1500059915.5,286047280.9,N
1500059935.4,286047280.5,N
1500059955.2,286047280.6,N
1500059975.0,286047278.6,N
1500059975.9,286047278.6,N
1500059995.8,286047278.4,N
1500060015.6,286047278.5,N
1500060035.5,286047279.4,N
1500060055.3,286047278.8,N
1500060075.1,286047278.8,N
1500060095.9,286047282.4,N
1500060115.7,286047280.2,N
1500060135.5,286047281.9,N
1500060155.4,286047282.0,N
1500060175.2,286047282.6,N
1500060195.1,286047281.8,N
1500060196.0,286047281.8,N
1500060215.8,286047284.3,N
1500060235.6,286047283.7,N
1500060255.5,286047281.5,N
1500060275.3,286047281.5,N
1500060295.1,286047282.3,N
1500060315.9,286047282.3,N
1500060335.7,286047282.8,N
1500060355.6,286047282.3,N
1500060375.4,286047280.3,N
1500060395.2,286047279.9,N
1500060415.1,286047278.5,N
1500060416.0,286047278.5,N
1500060435.8,286047278.9,N
1500060455.6,286047278.2,N
1500060475.5,286047279.5,N
1500060495.3,286047278.1,N
1500060515.2,286047280.3,N
1500060535.9,286047280.4,N
1500060555.7,286047282.7,N
1500060575.6,286047282.6,N
1500060595.4,286047284.2,N
1500060615.3,286047282.1,N
1500060635.1,286047281.4,N
1500060636.0,286047281.4,N
1500060655.8,286047279.8,N
1500060675.7,286047282.7,N
1500060695.5,286047282.3,N
1500060715.3,286047282.7,N
1500060735.2,286047282.0,N
1500060755.0,286047281.3,N
1500060755.9,286047281.3,N
1500060775.8,286047280.7,N
1500060795.6,286047282.1,N
1500060815.4,286047282.2,N
1500060835.3,286047283.9,N
1500060855.1,286047282.2,N
1500060875.9,286047281.4,N
1500060895.7,286047282.5,N
1500060915.5,286047281.8,N
1500060935.4,286047293.5,N
1500060955.2,286047283.3,N
1500060975.0,286047283.5,N
1500060975.9,286047283.5,N
1500060995.8,286047281.7,N
1500061015.6,286047282.2,N
1500061035.5,286047284.3,N
1500061055.3,286047281.7,N
1500061075.1,286047279.7,N
1500061095.9,286047279.9,N
1500061115.7,286047282.1,N
1500061135.5,286047280.0,N
1500061155.4,286047282.4,N
1500061175.2,286047281.6,N
1500061195.1,286047282.4,N
1500061196.0,286047282.4,N
1500061215.8,286047279.7,N
1500061235.6,286047281.4,N
1500061255.5,286047282.8,N
1500061275.3,286047281.6,N
1500061295.1,286047283.9,N
1500061315.9,286047283.6,N
1500061335.7,286047284.2,N
1500061355.6,286047284.4,N
1500061375.4,286047283.1,N
1500061395.2,286047285.2,N
1500061415.1,286047287.4,N
1500061416.0,286047287.4,N
1500061435.8,286047287.2,N
1500061455.6,286047287.4,N
1500061475.5,286047284.5,N
1500061495.3,286047287.1,N
1500061515.2,286047289.2,N
1500061535.9,286047289.2,N
1500061555.7,286047289.0,N
1500061575.6,286047289.0,N
1500061595.4,286047286.1,N
1500061615.2,286047288.8,N
1500061635.1,286047286.5,N
1500061636.0,286047286.5,N
1500061655.8,286047286.5,N
1500061675.7,286047288.6,N
1500061695.5,286047286.1,N
1500061715.3,286047287.3,N
1500061735.2,286047284.5,N
1500061755.0,286047287.4,N
1500061755.9,286047287.4,N
1500061775.8,286047287.6,N
1500061795.6,286047287.6,N
1500061815.4,286047282.9,N
1500061835.3,286047284.7,N
1500061855.1,286047285.8,N
1500061875.8,286047285.6,N
1500061895.7,286047285.8,N
1500061915.5,286047285.0,N
1500061935.4,286047284.6,N
1500061955.2,286047283.3,N
1500061975.0,286047283.5,N
1500061975.9,286047283.5,N
1500061995.8,286047283.3,N
1500062015.6,286047283.9,N
1500062035.4,286047281.4,N
1500062055.3,286047283.8,N
1500062075.1,286047284.6,N
1500062095.9,286047286.9,N
1500062115.7,286047284.6,N
1500062135.5,286047287.4,N
1500062155.4,286047287.3,N
1500062175.2,286047286.3,N
1500062195.0,286047285.0,N
1500062195.9,286047285.0,N
1500062215.8,286047285.0,N
1500062235.6,286047285.8,N
1500062255.4,286047284.7,N
1500062275.3,286047286.8,N
1500062295.1,286047285.1,N
1500062315.9,286047285.8,N
1500062335.7,286047283.4,N
1500062355.5,286047285.8,N
1500062375.4,286047285.3,N
1500062395.2,286047284.5,N
